Weather History for PAWI - April, 2013

Change the Weather History Date:

Wednesday, April 17, 2013

  Actual Average (PABR) Record (PABR)
Temperature  
Mean Temperature -4 °F -  
Max Temperature 5 °F 10 °F 35 °F (1951)
Min Temperature -14 °F -4 °F -26 °F (1952)
Degree Days  
Heating Degree Days 70 62  
Month to date heating degree days 1149  
Since 1 July heating degree days 16401  
Cooling Degree Days 0    
Month to date cooling degree days  
Year to date cooling degree days  
Moisture  
Dew Point -12 °F    
Average Humidity 74    
Maximum Humidity 79    
Minimum Humidity 70    
Precipitation  
Precipitation 0.00 in 0.00 in 0.50 in (1926)
Month to date precipitation 0.09  
Year to date precipitation 0.45  
Snow  
Snow 0.00 in 0.10 in 2.70 in (1963)
Month to date snowfall 1.8  
Since 1 July snowfall 32.9  
Snow Depth -    
Sea Level Pressure  
Sea Level Pressure 30.70 in    
Wind  
Wind Speed 11 mph (NE)    
Max Wind Speed 14 mph    
Max Gust Speed -    
Visibility 10 miles    
Events      
T = Trace of Precipitation, MM = Missing Value Source: NWS Daily Summary

Daily Weather History Graph

Daily Weather History Graph

Search for Another Location

Airport or City:

Trip Planner

Search our weather history database for the weather conditions in past years. The results will help you decide how hot, cold, wet, or windy it might be!

Date:

Astronomy

Apr. 17, 2013 Rise Set
Actual Time 6:17 AM AKDT 11:04 PM AKDT
Civil Twilight 4:44 AM AKDT 12:41 AM AKDT
Nautical Twilight Sun does not set Sun does not set
Astronomical Twilight Sun does not set Sun does not set
Moon 10:07 AM AKDT (4/17) 6:28 AM AKDT (4/17)
Length of Visible Light 19h 57m
Length of Day
16h 47m
Waxing Crescent, 44% of the Moon is Illuminated
Apr 17
Waxing Crescent
Apr 18
First Quarter
Apr 25
Full
May 2
Last Quarter
May 9
New

Hourly Weather History & Observations

Time (AKDT) Temp. Windchill Dew Point Humidity Pressure Visibility Wind Dir Wind Speed Gust Speed Precip Events Conditions
12:53 AM -9.0 °F -28.4 °F -14.1 °F 79% 30.65 in 10.0 mi NNE 11.5 mph - N/A   Clear
1:53 AM -9.9 °F -27.5 °F -16.1 °F 74% 30.65 in 10.0 mi NE 9.2 mph - N/A   Clear
2:53 AM -11.9 °F -31.0 °F -18.0 °F 74% 30.65 in 10.0 mi ENE 10.4 mph - N/A   Clear
3:53 AM -13.0 °F -34.3 °F -18.9 °F 75% 30.66 in 10.0 mi NE 12.7 mph - N/A   Clear
4:03 AM -11.2 °F -30.1 °F -18.4 °F 70% 30.65 in 10.0 mi NE 10.4 mph - N/A   Scattered Clouds
4:12 AM -11.2 °F -31.1 °F -18.4 °F 70% 30.65 in 10.0 mi NE 11.5 mph - N/A   Mostly Cloudy
4:53 AM -13.0 °F -33.4 °F -18.9 °F 75% 30.65 in 10.0 mi NE 11.5 mph - N/A   Partly Cloudy
5:53 AM -14.1 °F -32.6 °F -18.9 °F 79% 30.66 in 10.0 mi NE 9.2 mph - N/A   Clear
6:53 AM -13.0 °F -32.4 °F -18.9 °F 75% 30.66 in 10.0 mi NE 10.4 mph - N/A   Clear
7:53 AM -14.1 °F -33.7 °F -18.9 °F 79% 30.67 in 10.0 mi ENE 10.4 mph - N/A   Clear
8:53 AM -11.9 °F -29.9 °F -18.0 °F 74% 30.68 in 10.0 mi NE 9.2 mph - N/A   Clear
9:05 AM -11.2 °F -30.1 °F -18.4 °F 70% 30.68 in 8.0 mi ENE 10.4 mph - N/A   Partly Cloudy
9:53 AM -11.0 °F -28.8 °F -17.0 °F 75% 30.69 in 10.0 mi NE 9.2 mph - N/A   Clear
10:53 AM -9.0 °F -28.4 °F -15.0 °F 75% 30.70 in 10.0 mi NE 11.5 mph - N/A   Clear
11:53 AM -6.0 °F -25.5 °F -11.9 °F 75% 30.70 in 10.0 mi NE 12.7 mph - N/A   Clear
12:53 PM -2.9 °F -20.8 °F -9.0 °F 75% 30.71 in 6.0 mi NE 11.5 mph - N/A   Haze
1:05 PM -2.2 °F -19.9 °F -9.4 °F 71% 30.71 in 10.0 mi NE 11.5 mph - N/A   Scattered Clouds
1:53 PM -0.0 °F -18.0 °F -7.1 °F 72% 30.72 in 10.0 mi NE 12.7 mph - N/A   Clear
2:53 PM 1.9 °F -15.5 °F -5.1 °F 72% 30.73 in 10.0 mi NE 12.7 mph - N/A   Clear
3:53 PM 3.9 °F -13.7 °F -2.9 °F 73% 30.73 in 10.0 mi NE 13.8 mph - N/A   Clear
4:53 PM 5.0 °F -10.8 °F -2.0 °F 73% 30.73 in 10.0 mi NE 11.5 mph - N/A   Clear
5:53 PM 5.0 °F -10.8 °F -2.0 °F 73% 30.73 in 10.0 mi ENE 11.5 mph - N/A   Clear
6:53 PM 5.0 °F -9.1 °F -2.0 °F 73% 30.73 in 10.0 mi East 9.2 mph - N/A   Clear
7:53 PM 3.0 °F -10.5 °F -4.0 °F 73% 30.73 in 10.0 mi East 8.1 mph - N/A   Clear
8:53 PM 1.0 °F -14.0 °F -6.0 °F 72% 30.74 in 10.0 mi ENE 9.2 mph - N/A   Clear
9:53 PM -2.0 °F -17.7 °F -8.0 °F 76% 30.74 in 10.0 mi NE 9.2 mph - N/A   Clear
10:53 PM -2.9 °F -18.8 °F -9.0 °F 75% 30.74 in 10.0 mi ENE 9.2 mph - N/A   Clear
11:53 PM -5.1 °F -20.4 °F -11.0 °F 76% 30.74 in 10.0 mi ENE 8.1 mph - N/A   Clear